Location: Peterborough
(44.3091°N, 78.3197°W)
Time: 11:48:40
(UTC-04:00)

Transit 2A Rocket - Pass Details

Date: 29 March 2023
Orbit: 583 x 914 km, 66.7° (Epoch: 28 May)

Event Time Altitude Azimuth Distance (km) Brightness Sun altitude
Rises 11:27:05 0° 205° (SSW) 3,233 8.5 42.4°
Reaches altitude 10° 11:29:23 10° 204° (SSW) 2,358 7.9 42.6°
Maximum altitude 11:34:51 78° 119° (ESE) 868 6.4 43.2°
Drops below altitude 10° 11:40:49 10° 34° (NE) 2,560 7.7 43.9°
Sets 11:43:24 0° 34° (NNE) 3,529 8.3 44.1°
